Flag for U.S.A. Weather past 2 weeks in Miami, Florida, U.S.A.

76 °F

Passing clouds.

Feels Like: 75 °F
Forecast: 76 / 87 °F
Wind: 3 mph from West

Location: Miami International Airport

Current Time: Oct 10, 2015 at 8:40:57 AM

Latest Report: Oct 10, 2015 at 7:53 AM

Visibility: 10 mi

Pressure: 29.98 "Hg

Humidity: 94%

Dew point: 74 °F

Location of MiamiLocation

Historic Weather in Miami — Graph


Miami temperature yesterday

Maximum temperature yesterday: 88 °F (at 11:53 AM)
Minimum temperature yesterday: 77 °F (at 1:53 AM)
Average temperature yesterday: 81 °F

Past Weeks' High & Low Weather Summary

High92 °F (Sep 30, 3:53 PM)97% (Sep 28, 4:53 AM)30.05 "Hg (Sep 28, 4:53 AM)
Low72 °F (Oct 4, 6:53 AM)39% (Oct 3, 1:53 PM)29.51 "Hg (Oct 2, 4:53 PM)
Average81 °F75%29.83 "Hg
* Reported Sep 25 6:53 AM — Oct 10 6:53 AM, Miami, Weather by CustomWeather, © 2015

Note: Actual official high and low records may vary slightly from our data, if they occured in-between our weather recording intervals... More about our weather records


Miami weather history for previous 24 hours

Time TempWeatherWind HumidityBarometerVisibility
6:53 AM
Sat, Oct 10
76 °FPassing clouds.3 mph91%29.97 "Hg10 mi
5:53 AM77 °FPassing clouds.3 mph90%29.96 "Hg10 mi
4:53 AM77 °FClear.3 mph90%29.95 "Hg10 mi
3:53 AM76 °FClear.3 mph91%29.97 "Hg10 mi
2:53 AM78 °FPartly cloudy.5 mph84%29.98 "Hg10 mi
1:53 AM79 °FPartly cloudy.3 mph82%29.99 "Hg10 mi
12:53 AM79 °FClear.3 mph82%30.00 "Hg10 mi
11:53 PM
Fri, Oct 9
80 °FPartly cloudy.3 mph81%30.01 "Hg10 mi
10:53 PM82 °FPassing clouds.5 mph74%30.01 "Hg10 mi
9:53 PM81 °FMostly cloudy.5 mph79%30.00 "Hg10 mi
8:53 PM81 °FPassing clouds.5 mph82%29.99 "Hg10 mi
7:53 PM82 °FBroken clouds.3 mph77%29.98 "Hg10 mi
6:53 PM82 °FBroken clouds.5 mph77%29.97 "Hg10 mi
5:53 PM83 °FPartly sunny.6 mph77%29.97 "Hg10 mi
4:53 PM84 °FBroken clouds.7 mph72%29.97 "Hg10 mi
3:53 PM81 °FBroken clouds.12 mph77%29.98 "Hg10 mi
2:53 PM79 °FStrong thunderstorms. Broken clouds.8 mph84%29.99 "Hg7 mi
1:53 PM86 °FBroken clouds.8 mph65%29.99 "Hg10 mi
12:53 PM87 °FScattered clouds.6 mph65%30.02 "Hg10 mi
11:53 AM88 °FScattered clouds.7 mph61%30.04 "Hg10 mi
10:53 AM85 °FPassing clouds.6 mph65%30.05 "Hg10 mi
9:53 AM84 °FPassing clouds.5 mph70%30.05 "Hg10 mi
8:53 AM82 °FPassing clouds.3 mph77%30.03 "Hg10 mi
Weather by CustomWeather, © 2015

See weather overviewHow to use our weather pages